Vertical_Velocity
-1 -1 -2 -3 -1 0 1 -1 -1 -1 -1 -1 -1 -2 -1 -1 0 0 -0 -2 -1 -3 -1 -3 -2 -1 -1 1 -1 -1 -7 4 -5 -1 4 2 4 -4 -2 -2 0 -1 -2 -2 -1
-2 -1 -2 -1 -3 -1 -1 -0 -0 -1 -1 -1 0 -0 -0 -1 -0 1 -0 -0 -2 -1 -2 1 -2 -2 -3 1 -0 -3 16 -6 -3 4 -1 2 -4 0 -4 -1 -1 -3 -2 -1 -0
-1 -2 -1 -0 -1 -2 -2 -3 -2 -0 -0 -1 -1 -0 -0 -0 -1 0 -0 -1 0 -0 -2 -2 -1 -0 -2 -0 -2 -2 2 -1 1 1 2 -2 12 -13 1 -3 -5 -1 -2 -1 -0
-1 -1 -1 -2 -3 -0 -1 -1 -2 -2 -1 -2 -2 -1 -2 -2 -1 -4 0 -1 -0 0 1 -2 -1 -3 -2 0 -0 -2 -1 0 1 1 0 4 -5 1 -4 6 2 -1 -1 -2 -2
1 -0 -1 -0 0 -1 -1 -1 -1 -2 -1 -0 -1 -2 0 -2 -1 -3 -2 0 -0 1 -0 0 -1 -1 -1 1 0 -1 -4 2 3 -1 -2 -4 9 -7 -6 -2 -0 -2 -1 1 -2
-1 0 -0 1 0 -1 0 1 -0 -1 -1 -1 -1 -1 -2 -0 -3 0 -1 -1 -0 -2 1 1 1 1 -2 -1 -2 -2 -7 -2 -1 3 -2 -4 6 -5 -1 -8 -3 -2 1 2 -1
-2 -2 -1 0 0 1 1 2 1 1 -1 -1 -1 -2 -2 -4 -1 -2 -2 -2 1 -1 -2 2 0 1 1 1 2 -3 -2 -5 -8 9 2 -4 11 -10 -0 -8 -1 -2 -0 3 -2
-2 -4 -1 -1 -2 -1 0 2 1 3 2 1 -2 -4 1 2 0 2 -2 -0 -1 1 -2 -1 -1 0 -1 -1 0 -2 -1 1 11 -5 3 -5 38 25 -0 -5 -5 -3 3 4 -3
-2 -3 -3 -2 -3 1 -0 2 0 2 3 2 1 -3 -3 7 1 -1 -1 0 0 1 -1 -0 -0 -1 -1 -0 -1 -1 -2 1 3 9 -3 -3 -1 5 -2 -4 -4 -6 4 2 -2
-3 -5 -3 -2 -1 -1 -2 2 1 2 1 1 2 -3 1 1 -1 -1 1 1 0 -0 -0 0 1 0 0 0 -1 3 5 1 -2 -6 -2 1 -3 14 -3 -1 -1 -1 1 -1 -4
-4 -2 -2 -3 -2 -1 -1 6 -2 0 -4 8 -7 3 -3 -1 1 -2 0 -0 -1 0 1 -0 -0 0 2 2 -0 1 -8 -2 -1 -3 -6 2 -4 2 -4 -2 2 1 2 -4 -2
-1 -2 -5 -1 -0 -1 3 -3 10 -4 -4 5 3 3 -3 2 0 1 1 0 -3 -1 -1 0 -1 2 4 -1 -2 1 -1 1 -2 -2 -1 -4 -4 25 -4 -2 0 1 0 -2 -5
-3 -1 -2 -3 -2 -1 -0 -2 3 -4 -12 9 3 -5 6 -4 8 1 -4 4 -3 -3 -1 -1 3 1 -1 0 2 1 1 1 -2 -2 2 -4 -4 -6 -3 -3 -0 -0 1 1 -0
-4 -4 -3 -3 1 5 -2 1 -0 1 -13 -2 -19 -17 -11 2 -14 11 -4 -2 -4 -0 -2 -1 1 3 -2 -0 1 -1 1 1 -1 -2 -2 4 -9 19 0 -9 -5 -2 0 0 -2
-3 -1 -3 1 -2 -0 1 -0 2 5 -9 9 -4 -8 8 -11 29 -7 6 2 -3 2 2 1 -1 -1 -2 1 0 1 3 -4 -0 -2 1 -6 5 20 2 -8 6 -7 -1 0 -3
-5 0 -3 -0 -1 -3 2 0 -1 7 -23 7 9 -10 12 -9 7 -1 -0 1 1 3 5 -4 1 3 -1 -1 -1 2 -1 -0 -2 -0 -2 -9 7 11 16 6 15 -9 -0 -4 -1
-5 -0 1 -1 -4 -3 3 -1 2 -25 7 -12 1 4 -2 7 7 4 -3 -6 -11 -5 -6 6 0 2 -1 -2 -2 -2 1 -1 -1 -0 -12 16 13 8 6 9 -10 3 -2 -5 0
-2 -4 -5 -1 1 -2 1 -1 -21 29 9 21 2 15 8 13 5 1 7 -1 -8 2 6 0 -3 4 4 -4 3 -4 -0 3 7 9 18 8 -12 -4 -1 -7 -7 7 -5 1 -0
-1 -5 -2 1 -2 -1 -4 -11 12 11 8 9 8 1 -2 -2 3 15 3 -3 7 6 -12 12 -11 7 5 -6 0 -1 -2 1 0 -15 -12 22 31 -7 -9 -6 1 2 -1 1 1
-4 -1 1 -0 1 -0 -7 8 -0 -3 5 -3 0 4 16 -2 7 -2 10 -2 -1 7 10 -0 -5 20 2 -10 -3 -6 8 -2 -2 -6 -3 14 3 3 -6 -17 2 1 -2 1 1
-3 -1 7 2 -2 -4 -1 3 -2 2 -3 -0 9 -2 5 23 23 3 27 -3 2 3 12 4 9 -5 14 -9 9 -5 -7 -8 10 10 23 4 9 46 -17 6 -14 -4 -1 -0 4
-3 -2 8 0 -3 -6 1 4 5 -3 -6 4 0 -2 -6 22 4 2 4 58 -22 -3 -3 -2 6 -19 35 1 -9 9 3 -2 -1 -10 -11 -3 -22 55 -1 3 -7 -5 -1 1 4
-2 -2 0 -0 -0 -0 1 1 -2 0 3 6 2 1 6 -6 -5 9 4 -4 11 6 11 2 -16 6 -13 12 6 -8 -5 9 6 -4 1 19 30 68 10 -4 -2 -3 1 -1 1
0 0 0 0 -0 1 -0 -1 2 -1 1 -2 -0 -3 -1 -3 0 -1 -0 -0 3 8 -4 -4 2 -10 9 -11 57 -4 -5 2 -5 6 4 -20 15 -48 6 -14 3 1 -6 3 3
-0 -2 0 -1 -7 1 -3 -0 1 1 1 -1 -1 3 1 -2 -3 -1 3 4 -6 -7 10 5 -3 4 -19 20 -30 -1 9 -6 5 -7 -6 54 1 -50 14 13 -9 3 -7 1 -3
-1 -1 -2 0 -1 -1 -2 -0 -4 2 4 1 -1 3 5 -1 0 2 5 1 5 -4 0 6 -3 8 -15 15 0 -6 10 21 23 -0 -11 7 -13 -13 -17 25 -1 -2 -0 -1 -1
1 -2 -1 1 -2 -2 -2 6 5 -7 0 3 -0 -0 3 2 -2 5 -2 -6 13 1 28 -6 2 -6 -14 -0 -2 -14 -11 -3 7 16 9 56 10 12 9 -4 -11 1 1 3 2
Height
5931 5932 5933 5933 5934 5934 5935 5935 5936 5937 5937 5936 5936 5936 5936 5937 5936 5936 5936 5936 5936 5936 5937 5938 5938 5940 5941 5942 5943 5945 5945 5956 5952 5949 5948 5945 5941 5934 5932 5927 5924 5921 5917 5913 5909
5929 5930 5931 5932 5933 5933 5933 5933 5934 5935 5935 5935 5935 5935 5935 5935 5935 5935 5936 5935 5935 5936 5936 5937 5937 5939 5941 5942 5944 5945 5949 5951 5949 5948 5945 5945 5940 5938 5933 5929 5925 5922 5919 5914 5911
5926 5927 5928 5929 5930 5931 5932 5931 5931 5932 5932 5933 5933 5933 5933 5933 5934 5934 5934 5934 5934 5935 5935 5936 5936 5938 5940 5942 5943 5943 5947 5947 5948 5945 5944 5944 5944 5938 5936 5934 5926 5923 5920 5916 5913
5921 5922 5923 5925 5926 5927 5928 5928 5929 5929 5929 5930 5930 5931 5931 5931 5934 5931 5933 5933 5933 5933 5934 5935 5935 5937 5938 5941 5943 5943 5943 5944 5946 5945 5943 5943 5941 5941 5935 5937 5929 5925 5921 5918 5915
5915 5916 5918 5919 5920 5922 5924 5924 5924 5925 5925 5926 5926 5927 5928 5929 5929 5930 5930 5931 5932 5932 5933 5933 5934 5934 5935 5937 5940 5940 5943 5941 5944 5945 5940 5939 5941 5937 5934 5932 5927 5924 5921 5920 5917
5908 5909 5910 5911 5913 5915 5917 5918 5920 5920 5920 5921 5922 5922 5924 5925 5925 5926 5927 5928 5929 5931 5931 5932 5932 5932 5932 5932 5934 5936 5935 5938 5940 5943 5940 5938 5940 5937 5933 5930 5927 5924 5921 5920 5918
5901 5902 5903 5904 5905 5907 5908 5910 5912 5914 5915 5915 5916 5917 5917 5919 5921 5922 5923 5924 5925 5927 5928 5929 5930 5930 5930 5931 5931 5932 5933 5936 5939 5942 5940 5938 5938 5928 5931 5929 5927 5925 5922 5921 5919
5893 5894 5895 5897 5898 5899 5900 5902 5904 5906 5908 5909 5911 5911 5912 5914 5915 5917 5918 5920 5921 5923 5925 5926 5926 5927 5927 5928 5929 5929 5931 5935 5940 5938 5938 5936 5941 5936 5928 5927 5927 5925 5923 5922 5919
5884 5885 5885 5887 5889 5890 5892 5894 5896 5897 5899 5902 5904 5904 5906 5909 5910 5912 5912 5914 5916 5917 5919 5920 5922 5923 5923 5924 5925 5926 5930 5934 5937 5934 5933 5933 5935 5934 5927 5925 5925 5924 5923 5922 5919
5874 5875 5875 5875 5877 5879 5881 5884 5885 5888 5890 5893 5895 5898 5901 5903 5903 5905 5906 5909 5910 5911 5914 5916 5917 5919 5920 5920 5923 5928 5931 5933 5934 5933 5931 5930 5931 5934 5927 5924 5923 5923 5922 5921 5918
5865 5865 5864 5863 5865 5867 5870 5873 5875 5875 5877 5883 5885 5889 5889 5894 5898 5899 5901 5903 5905 5906 5909 5910 5912 5915 5917 5919 5918 5921 5922 5924 5926 5926 5924 5925 5925 5929 5924 5922 5922 5921 5921 5919 5917
5857 5853 5853 5853 5853 5854 5856 5857 5862 5862 5866 5873 5875 5879 5882 5887 5891 5893 5895 5898 5900 5902 5903 5906 5907 5910 5910 5910 5912 5914 5917 5919 5918 5919 5919 5920 5922 5927 5920 5919 5920 5918 5917 5916 5914
5847 5843 5841 5842 5842 5843 5843 5845 5848 5850 5852 5863 5865 5869 5876 5877 5883 5887 5889 5892 5893 5896 5899 5901 5906 5904 5904 5906 5907 5910 5912 5913 5915 5915 5916 5915 5917 5918 5918 5916 5916 5916 5914 5913 5912
5837 5834 5830 5830 5831 5831 5831 5834 5836 5838 5839 5851 5853 5858 5865 5868 5872 5879 5882 5887 5888 5891 5894 5897 5899 5900 5899 5900 5903 5905 5908 5908 5909 5909 5912 5915 5916 5917 5917 5914 5912 5912 5911 5909 5908
5828 5824 5820 5820 5819 5822 5825 5823 5826 5830 5830 5844 5846 5848 5857 5858 5870 5872 5874 5878 5880 5886 5889 5893 5893 5893 5893 5897 5898 5901 5903 5903 5904 5905 5906 5910 5915 5917 5914 5913 5912 5907 5907 5905 5904
5817 5813 5809 5810 5810 5813 5814 5815 5817 5821 5820 5835 5838 5841 5847 5852 5859 5863 5866 5870 5875 5878 5881 5884 5889 5889 5889 5891 5893 5896 5897 5899 5900 5902 5905 5907 5911 5914 5913 5909 5909 5903 5903 5902 5901
5805 5801 5799 5798 5801 5803 5804 5806 5809 5810 5824 5826 5831 5833 5838 5844 5850 5854 5856 5861 5864 5869 5872 5877 5880 5882 5883 5885 5888 5891 5893 5896 5901 5903 5903 5906 5906 5909 5908 5906 5901 5900 5898 5898 5898
5793 5790 5791 5790 5792 5793 5795 5798 5801 5809 5813 5822 5823 5830 5833 5840 5844 5847 5850 5854 5856 5863 5868 5871 5874 5877 5878 5879 5884 5885 5889 5894 5899 5902 5904 5897 5900 5902 5899 5896 5894 5894 5892 5893 5894
5784 5780 5780 5782 5783 5785 5787 5789 5795 5801 5810 5812 5817 5820 5824 5831 5836 5841 5843 5846 5852 5856 5858 5865 5868 5875 5875 5875 5878 5880 5884 5889 5892 5894 5896 5898 5898 5894 5893 5891 5890 5889 5888 5889 5891
5773 5771 5772 5774 5776 5777 5779 5783 5788 5795 5798 5799 5804 5813 5821 5827 5830 5831 5836 5840 5843 5849 5854 5856 5862 5869 5870 5869 5871 5873 5881 5883 5884 5887 5890 5893 5892 5893 5888 5887 5887 5884 5884 5886 5888
5767 5764 5767 5768 5770 5772 5774 5777 5782 5786 5786 5793 5800 5807 5814 5819 5820 5826 5833 5835 5837 5842 5847 5850 5856 5862 5862 5861 5866 5868 5870 5874 5881 5884 5886 5888 5890 5886 5881 5884 5881 5881 5881 5883 5884
5759 5757 5762 5762 5766 5767 5768 5771 5775 5776 5781 5787 5792 5796 5800 5807 5810 5817 5825 5829 5825 5831 5836 5842 5849 5852 5857 5859 5859 5865 5867 5868 5872 5876 5878 5880 5881 5880 5878 5876 5876 5878 5878 5879 5880
5753 5753 5755 5757 5760 5762 5763 5764 5767 5772 5775 5780 5785 5790 5795 5799 5803 5810 5816 5811 5817 5824 5830 5836 5840 5845 5850 5856 5857 5856 5861 5865 5867 5870 5872 5875 5879 5873 5868 5869 5872 5872 5874 5875 5876
5748 5750 5750 5751 5754 5757 5757 5758 5761 5766 5769 5773 5778 5783 5787 5792 5797 5803 5809 5812 5813 5818 5821 5827 5833 5838 5844 5850 5854 5851 5852 5857 5861 5864 5867 5870 5873 5861 5862 5863 5867 5868 5869 5871 5872
5743 5745 5744 5748 5749 5751 5752 5753 5756 5760 5764 5765 5771 5776 5781 5786 5791 5797 5802 5807 5808 5811 5818 5823 5826 5832 5835 5839 5839 5845 5849 5850 5854 5857 5860 5864 5859 5851 5843 5857 5861 5863 5865 5866 5867
5738 5740 5740 5743 5746 5746 5746 5748 5750 5755 5759 5761 5766 5771 5776 5780 5785 5791 5798 5803 5808 5810 5812 5817 5821 5826 5830 5835 5836 5840 5842 5845 5850 5853 5855 5856 5845 5846 5845 5850 5855 5858 5860 5862 5863
5735 5736 5738 5741 5742 5743 5742 5744 5746 5746 5752 5756 5761 5765 5770 5773 5777 5784 5791 5795 5801 5800 5805 5808 5815 5819 5826 5829 5831 5833 5837 5841 5845 5846 5851 5845 5833 5842 5844 5847 5850 5853 5855 5856 5858